Lumberton, NC

6:49 PM EDT on August 21, 2017 (GMT -0400)
Lumberton Municipal

Weather History for KLBT - May, 2013

Change the Weather History Date:

Tuesday, May 7, 2013

  Actual Average Record
Temperature  
Mean Temperature 61 °F 67 °F  
Max Temperature 72 °F 80 °F 90 °F (2000)
Min Temperature 50 °F 54 °F 39 °F (2005)
Degree Days  
Heating Degree Days 4 2  
Month to date heating degree days 17 16  
Since 1 July heating degree days 2781 2745  
Cooling Degree Days 0 4  
Month to date cooling degree days 0 25  
Year to date cooling degree days 44 93  
Growing Degree Days 11 (Base 50)    
Moisture  
Dew Point 51 °F    
Average Humidity 75    
Maximum Humidity 100    
Minimum Humidity 49    
Precipitation  
Precipitation 0.00 in 0.07 in 1.99 in (2006)
Month to date precipitation 0.60 0.47  
Year to date precipitation 11.96 12.49  
Sea Level Pressure  
Sea Level Pressure 29.91 in    
Wind  
Wind Speed 5 mph (SW)    
Max Wind Speed 17 mph    
Max Gust Speed 24 mph    
Visibility 9 miles    
Events      
T = Trace of Precipitation, MM = Missing Value Source: NWS Daily Summary

Daily Weather History Graph

Daily Weather History Graph

Search for Another Location

Airport or City:

Trip Planner

Search our weather history database for the weather conditions in past years. The results will help you decide how hot, cold, wet, or windy it might be!

Date:

Astronomy

May. 07, 2013 Rise Set
Actual Time 6:19 AM EDT 8:06 PM EDT
Civil Twilight 5:52 AM EDT 8:33 PM EDT
Nautical Twilight 5:19 AM EDT 9:06 PM EDT
Astronomical Twilight 4:44 AM EDT 9:41 PM EDT
Moon 4:47 AM EDT (5/7) 6:08 PM EDT (5/7)
Length of Visible Light 14h 40m
Length of Day
13h 46m
Waning Crescent, 5% of the Moon is Illuminated
May 7
Waning Crescent
May 9
New
May 18
First Quarter
May 25
Full
May 31
Last Quarter

Hourly Weather History & Observations

Time (EDT) Temp. Dew Point Humidity Pressure Visibility Wind Dir Wind Speed Gust Speed Precip Events Conditions
12:54 AM 54.0 °F 52.0 °F 93% 29.90 in 6.0 mi Calm Calm - N/A   Scattered Clouds
1:54 AM 53.1 °F 52.0 °F 96% 29.89 in 5.0 mi WSW 5.8 mph - N/A   Partly Cloudy
2:54 AM 54.0 °F 52.0 °F 93% 29.88 in 10.0 mi West 4.6 mph - N/A   Clear
3:54 AM 52.0 °F 50.0 °F 93% 29.88 in 10.0 mi WSW 3.5 mph - N/A   Clear
4:54 AM 51.1 °F 50.0 °F 96% 29.88 in 9.0 mi Calm Calm - N/A   Clear
5:54 AM 52.0 °F 50.0 °F 93% 29.88 in 7.0 mi Calm Calm - N/A   Clear
6:54 AM 53.1 °F 51.1 °F 93% 29.90 in 6.0 mi Calm Calm - N/A   Mostly Cloudy
7:54 AM 54.0 °F 52.0 °F 93% 29.91 in 8.0 mi WSW 3.5 mph - N/A   Clear
8:54 AM 55.9 °F 53.1 °F 90% 29.94 in 9.0 mi SW 6.9 mph - N/A   Partly Cloudy
9:54 AM 64.9 °F 50.0 °F 58% 29.94 in 10.0 mi SW 10.4 mph - N/A   Clear
10:54 AM 68.0 °F 50.0 °F 52% 29.93 in 10.0 mi Variable 6.9 mph - N/A   Clear
11:54 AM 66.9 °F 50.0 °F 54% 29.94 in 10.0 mi SSW 10.4 mph - N/A   Mostly Cloudy
12:54 PM 64.9 °F 52.0 °F 63% 29.94 in 10.0 mi SSW 10.4 mph 17.3 mph N/A   Partly Cloudy
1:54 PM 66.9 °F 51.1 °F 57% 29.92 in 10.0 mi SW 8.1 mph - N/A   Partly Cloudy
2:54 PM 66.0 °F 50.0 °F 56% 29.91 in 10.0 mi South 6.9 mph - N/A   Overcast
3:54 PM 71.1 °F 51.1 °F 49% 29.90 in 10.0 mi WSW 11.5 mph 19.6 mph N/A   Scattered Clouds
4:54 PM 69.1 °F 52.0 °F 54% 29.89 in 10.0 mi SW 10.4 mph 17.3 mph N/A   Partly Cloudy
5:54 PM 68.0 °F 52.0 °F 56% 29.91 in 10.0 mi SW 9.2 mph - N/A   Clear
6:54 PM 66.0 °F 53.1 °F 63% 29.90 in 10.0 mi SW 6.9 mph - N/A   Scattered Clouds
7:54 PM 61.0 °F 54.0 °F 78% 29.91 in 10.0 mi South 3.5 mph - N/A   Clear
8:54 PM 57.0 °F 53.1 °F 87% 29.93 in 10.0 mi Calm Calm - N/A   Clear
9:54 PM 52.0 °F 51.1 °F 97% 29.95 in 10.0 mi Calm Calm - N/A   Clear
10:54 PM 53.1 °F 52.0 °F 96% 29.96 in 9.0 mi Calm Calm - N/A   Partly Cloudy
11:54 PM 52.0 °F 51.1 °F 97% 29.96 in 6.0 mi SSE 3.5 mph - N/A   Clear